Location: Newark
(52.3735°N, 16.9806°E)
Time: 04:45:41
(UTC+00:00)

LilacSat-2 - Pass Details

Date: 06 December 2021
Orbit: 511 x 532 km, 97.5° (Epoch: 16 January)

Event Time Altitude Azimuth Distance (km) Brightness Sun altitude
Rises 16:59:43 0° 212° (SSW) 2,635 ? -20.1°
Reaches altitude 10° 17:02:39 10° 238° (WSW) 1,759 ? -20.6°
Maximum altitude 17:04:44 14° 272° (W) 1,518 ? -20.9°
Drops below altitude 10° 17:06:50 10° 305° (NW) 1,775 ? -21.2°
Sets 17:09:50 0° 331° (NNW) 2,676 ? -21.7°
